TimePST,TemperatureF,Dew PointF,Humidity,Sea Level PressureIn,VisibilityMPH,Wind Direction,Wind SpeedMPH,Gust SpeedMPH,PrecipitationIn,Events,Conditions,WindDirDegrees,DateUTC
12:53 AM,46.0,35.1,66,29.86,10.0,South,8.1,-,N/A,,Overcast,180,2012-11-18 08:53:00
1:53 AM,48.9,33.1,54,29.86,10.0,WSW,6.9,-,N/A,,Overcast,240,2012-11-18 09:53:00
2:53 AM,46.0,32.0,58,29.89,10.0,WSW,8.1,-,N/A,,Mostly Cloudy,240,2012-11-18 10:53:00
3:53 AM,42.1,30.9,65,29.91,10.0,SW,5.8,-,N/A,,Overcast,220,2012-11-18 11:53:00
4:53 AM,44.1,32.0,63,29.91,10.0,South,3.5,-,N/A,,Overcast,180,2012-11-18 12:53:00
6:53 AM,43.0,33.1,68,29.93,10.0,SSW,10.4,-,N/A,,Scattered Clouds,200,2012-11-18 14:53:00
7:53 AM,44.1,35.1,71,29.96,10.0,NE,3.5,-,N/A,,Overcast,50,2012-11-18 15:53:00
8:53 AM,46.9,37.0,68,29.97,10.0,Calm,Calm,-,N/A,,Overcast,0,2012-11-18 16:53:00
9:53 AM,50.0,34.0,54,29.98,10.0,Variable,3.5,-,N/A,,Overcast,0,2012-11-18 17:53:00
10:53 AM,53.1,36.0,52,29.99,10.0,NE,4.6,-,N/A,,Overcast,50,2012-11-18 18:53:00
12:53 PM,57.0,34.0,42,29.94,10.0,SSW,9.2,-,N/A,,Partly Cloudy,200,2012-11-18 20:53:00
1:53 PM,57.9,33.1,39,29.93,10.0,SSW,12.7,-,N/A,,Mostly Cloudy,210,2012-11-18 21:53:00
2:53 PM,55.9,33.1,42,29.94,10.0,West,3.5,-,N/A,,Mostly Cloudy,280,2012-11-18 22:53:00
3:53 PM,54.0,33.1,45,29.97,10.0,West,10.4,-,N/A,,Overcast,280,2012-11-18 23:53:00
4:53 PM,52.0,32.0,47,29.99,10.0,WNW,5.8,-,N/A,,Overcast,300,2012-11-19 00:53:00
5:53 PM,50.0,30.9,48,30.01,10.0,SW,8.1,-,N/A,,Overcast,230,2012-11-19 01:53:00
6:53 PM,50.0,30.0,46,30.04,10.0,Calm,Calm,-,N/A,,Overcast,0,2012-11-19 02:53:00
7:53 PM,48.9,30.9,50,30.06,10.0,NE,4.6,-,N/A,,Overcast,40,2012-11-19 03:53:00
9:53 PM,46.9,33.1,59,30.09,10.0,Calm,Calm,-,N/A,,Overcast,0,2012-11-19 05:53:00
10:53 PM,44.1,30.9,60,30.09,10.0,SSW,8.1,-,N/A,,Overcast,200,2012-11-19 06:53:00
11:53 PM,42.1,30.9,65,30.11,10.0,WNW,3.5,-,N/A,,Overcast,300,2012-11-19 07:53:00